Change the Weather History Date:

Saturday, March 16, 2013

  Actual Average Record
Temperature  
Mean Temperature 68 °F -  
Max Temperature 78 °F 63 °F 78 °F (2012)
Min Temperature 57 °F 48 °F 37 °F (2009)
Cooling Degree Days 2    
Growing Degree Days 18 (Base 50)    
Moisture  
Dew Point 51 °F    
Average Humidity 56    
Maximum Humidity 82    
Minimum Humidity 39    
Precipitation  
Precipitation 0.00 in - - ()
Sea Level Pressure  
Sea Level Pressure 29.82 in    
Wind  
Wind Speed 17 mph (South)    
Max Wind Speed 24 mph    
Max Gust Speed 31 mph    
Visibility 10 miles    
Events      
Averages and records for this station are not official NWS values.
T = Trace of Precipitation, MM = Missing Value Source: NWS Daily Summary

Daily Weather History Graph

Daily Weather History Graph

Search for Another Location

Airport or City:

Trip Planner

Search our weather history database for the weather conditions in past years. The results will help you decide how hot, cold, wet, or windy it might be!

Date:

Astronomy

Mar. 16, 2013 Rise Set
Actual Time 7:32 AM CDT 7:33 PM CDT
Civil Twilight 7:08 AM CDT 7:57 PM CDT
Nautical Twilight 6:39 AM CDT 8:26 PM CDT
Astronomical Twilight 6:10 AM CDT 8:55 PM CDT
Moon 10:19 AM CDT (3/16) No Moon Set
Length of Visible Light 12h 49m
Length of Day
12h 00m
Waxing Crescent, 23% of the Moon is Illuminated
Mar 16
Waxing Crescent
Mar 19
First Quarter
Mar 27
Full
Apr 2
Last Quarter
Apr 10
New

Hourly Weather History & Observations

Time (CDT) Temp. Dew Point Humidity Pressure Visibility Wind Dir Wind Speed Gust Speed Precip Events Conditions
12:15 AM 66.2 °F 46.4 °F 49% 29.91 in 10.0 mi South 16.1 mph 24.2 mph N/A   Clear
12:35 AM 66.2 °F 46.4 °F 49% 29.90 in 10.0 mi South 17.3 mph - N/A   Clear
12:55 AM 64.4 °F 46.4 °F 52% 29.90 in 10.0 mi South 18.4 mph 21.9 mph N/A   Clear
1:15 AM 64.4 °F 46.4 °F 52% 29.90 in 10.0 mi South 16.1 mph 24.2 mph N/A   Clear
1:35 AM 64.4 °F 48.2 °F 56% 29.89 in 10.0 mi South 18.4 mph 25.3 mph N/A   Clear
1:55 AM 64.4 °F 48.2 °F 56% 29.89 in 10.0 mi South 17.3 mph 26.5 mph N/A   Clear
2:15 AM 62.6 °F 48.2 °F 59% 29.89 in 10.0 mi SSW 20.7 mph 25.3 mph N/A   Clear
2:35 AM 62.6 °F 46.4 °F 55% 29.89 in 10.0 mi South 18.4 mph 26.5 mph N/A   Clear
2:55 AM 62.6 °F 46.4 °F 55% 29.89 in 10.0 mi South 17.3 mph 24.2 mph N/A   Clear
3:15 AM 60.8 °F 46.4 °F 59% 29.89 in 10.0 mi South 19.6 mph - N/A   Clear
3:35 AM 60.8 °F 48.2 °F 63% 29.89 in 10.0 mi South 17.3 mph 23.0 mph N/A   Clear
3:55 AM 60.8 °F 48.2 °F 63% 29.88 in 10.0 mi South 16.1 mph 20.7 mph N/A   Clear
4:15 AM 60.8 °F 48.2 °F 63% 29.87 in 10.0 mi South 16.1 mph 20.7 mph N/A   Clear
4:35 AM 59.0 °F 50.0 °F 72% 29.87 in 10.0 mi South 16.1 mph 20.7 mph N/A   Clear
4:55 AM 59.0 °F 50.0 °F 72% 29.87 in 10.0 mi South 15.0 mph - N/A   Clear
5:15 AM 59.0 °F 50.0 °F 72% 29.87 in 10.0 mi South 15.0 mph - N/A   Clear
5:35 AM 59.0 °F 50.0 °F 72% 29.88 in 10.0 mi South 13.8 mph 19.6 mph N/A   Clear
5:55 AM 59.0 °F 51.8 °F 77% 29.87 in 10.0 mi South 15.0 mph 21.9 mph N/A   Clear
6:15 AM 59.0 °F 51.8 °F 77% 29.87 in 10.0 mi South 15.0 mph 24.2 mph N/A   Clear
6:35 AM 59.0 °F 51.8 °F 77% 29.87 in 10.0 mi South 17.3 mph - N/A   Clear
6:55 AM 59.0 °F 51.8 °F 77% 29.88 in 10.0 mi South 16.1 mph 24.2 mph N/A   Clear
7:15 AM 59.0 °F 51.8 °F 77% 29.87 in 10.0 mi South 17.3 mph 23.0 mph N/A   Clear
7:35 AM 59.0 °F 51.8 °F 77% 29.87 in 10.0 mi South 18.4 mph - N/A   Clear
7:55 AM 57.2 °F 51.8 °F 82% 29.87 in 10.0 mi South 15.0 mph - N/A   Clear
8:15 AM 59.0 °F 51.8 °F 77% 29.87 in 10.0 mi South 13.8 mph 19.6 mph N/A   Clear
8:35 AM 59.0 °F 51.8 °F 77% 29.88 in 10.0 mi South 15.0 mph - N/A   Clear
8:55 AM 60.8 °F 53.6 °F 77% 29.88 in 10.0 mi South 16.1 mph 21.9 mph N/A   Clear
9:15 AM 62.6 °F 53.6 °F 72% 29.88 in 10.0 mi South 16.1 mph 21.9 mph N/A   Clear
9:35 AM 62.6 °F 53.6 °F 72% 29.88 in 10.0 mi South 16.1 mph 25.3 mph N/A   Clear
9:55 AM 64.4 °F 53.6 °F 68% 29.88 in 10.0 mi South 21.9 mph 26.5 mph N/A   Clear
10:15 AM 66.2 °F 51.8 °F 60% 29.88 in 10.0 mi South 20.7 mph 26.5 mph N/A   Clear
10:35 AM 68.0 °F 51.8 °F 56% 29.88 in 10.0 mi SSW 20.7 mph 27.6 mph N/A   Clear
10:55 AM 68.0 °F 51.8 °F 56% 29.88 in 10.0 mi SSW 21.9 mph 26.5 mph N/A   Clear
11:15 AM 69.8 °F 53.6 °F 56% 29.87 in 10.0 mi SSW 21.9 mph 27.6 mph N/A   Clear
11:35 AM 71.6 °F 53.6 °F 53% 29.86 in 10.0 mi South 24.2 mph 31.1 mph N/A   Clear
11:55 AM 71.6 °F 53.6 °F 53% 29.86 in 10.0 mi SSW 19.6 mph 28.8 mph N/A   Clear
12:15 PM 73.4 °F 53.6 °F 50% 29.86 in 10.0 mi South 18.4 mph 25.3 mph N/A   Clear
12:35 PM 73.4 °F 53.6 °F 50% 29.85 in 10.0 mi South 18.4 mph 28.8 mph N/A   Clear
12:55 PM 75.2 °F 51.8 °F 44% 29.84 in 10.0 mi South 18.4 mph 31.1 mph N/A   Clear
1:15 PM 77.0 °F 51.8 °F 41% 29.83 in 10.0 mi South 21.9 mph 27.6 mph N/A   Clear
1:35 PM 77.0 °F 53.6 °F 44% 29.83 in 10.0 mi South 18.4 mph 25.3 mph N/A   Clear
1:55 PM 78.8 °F 53.6 °F 42% 29.82 in 10.0 mi South 20.7 mph - N/A   Clear
2:15 PM 78.8 °F 53.6 °F 42% 29.81 in 10.0 mi South 21.9 mph 26.5 mph N/A   Clear
2:35 PM 78.8 °F 53.6 °F 42% 29.80 in 10.0 mi SSE 19.6 mph 26.5 mph N/A   Clear
2:55 PM 78.8 °F 53.6 °F 42% 29.78 in 10.0 mi SSE 21.9 mph 27.6 mph N/A   Clear
3:15 PM 78.8 °F 53.6 °F 42% 29.77 in 10.0 mi SSE 19.6 mph - N/A   Clear
3:35 PM 78.8 °F 53.6 °F 42% 29.76 in 10.0 mi South 19.6 mph 26.5 mph N/A   Clear
3:55 PM 78.8 °F 53.6 °F 42% 29.76 in 10.0 mi SSE 19.6 mph 24.2 mph N/A   Clear
4:15 PM 78.8 °F 53.6 °F 42% 29.75 in 10.0 mi SSE 21.9 mph - N/A   Clear
4:35 PM 78.8 °F 53.6 °F 42% 29.74 in 10.0 mi South 18.4 mph 26.5 mph N/A   Clear
4:55 PM 78.8 °F 53.6 °F 42% 29.74 in 10.0 mi SSE 20.7 mph 26.5 mph N/A   Clear
5:15 PM 78.8 °F 51.8 °F 39% 29.73 in 10.0 mi South 15.0 mph 25.3 mph N/A   Clear
5:35 PM 78.8 °F 51.8 °F 39% 29.72 in 10.0 mi South 23.0 mph 27.6 mph N/A   Clear
5:55 PM 77.0 °F 51.8 °F 41% 29.72 in 10.0 mi South 20.7 mph - N/A   Clear
6:15 PM 77.0 °F 51.8 °F 41% 29.72 in 10.0 mi South 18.4 mph 27.6 mph N/A   Clear
6:35 PM 77.0 °F 50.0 °F 39% 29.72 in 10.0 mi South 18.4 mph 26.5 mph N/A   Clear
6:55 PM 77.0 °F 50.0 °F 39% 29.72 in 10.0 mi South 21.9 mph 26.5 mph N/A   Clear
7:15 PM 75.2 °F 50.0 °F 41% 29.72 in 10.0 mi South 17.3 mph 23.0 mph N/A   Clear
7:35 PM 73.4 °F 50.0 °F 44% 29.73 in 10.0 mi South 13.8 mph 19.6 mph N/A   Clear
7:55 PM 73.4 °F 50.0 °F 44% 29.73 in 10.0 mi South 9.2 mph - N/A   Clear
8:15 PM 69.8 °F 51.8 °F 53% 29.74 in 10.0 mi SSE 6.9 mph - N/A   Clear
8:35 PM 68.0 °F 51.8 °F 56% 29.75 in 10.0 mi SSE 6.9 mph - N/A   Clear
8:55 PM 64.4 °F 51.8 °F 64% 29.75 in 10.0 mi SE 6.9 mph - N/A   Clear
9:15 PM 64.4 °F 51.8 °F 64% 29.75 in 10.0 mi SE 6.9 mph - N/A   Clear
9:35 PM 62.6 °F 51.8 °F 68% 29.76 in 10.0 mi SE 6.9 mph - N/A   Clear
9:55 PM 64.4 °F 51.8 °F 64% 29.75 in 10.0 mi SE 9.2 mph - N/A   Clear
10:15 PM 68.0 °F 51.8 °F 56% 29.76 in 10.0 mi SSE 12.7 mph - N/A   Clear
10:35 PM 68.0 °F 50.0 °F 52% 29.74 in 10.0 mi SSE 15.0 mph - N/A   Clear
10:55 PM 69.8 °F 50.0 °F 49% 29.74 in 10.0 mi SSE 15.0 mph - N/A   Clear
11:15 PM 69.8 °F 51.8 °F 53% 29.75 in 10.0 mi SSE 16.1 mph 20.7 mph N/A   Clear
11:35 PM 69.8 °F 51.8 °F 53% 29.76 in 10.0 mi South 16.1 mph 23.0 mph N/A   Clear
11:55 PM 68.0 °F 51.8 °F 56% 29.76 in 10.0 mi South 15.0 mph 20.7 mph N/A   Clear